Regional Weather Roundup
Issued by NWS State College, PA

Home | Current Version | Previous Version | Graphics & Text | Print | Product List | Glossary Off
Versions: 1 2 3 4 5 6 7 8 9 10 11 12 13 14 15 16 17 18 19 20 21 22 23 24 25 26 27 28 29 30 31 32 33 34 35 36 37 38 39 40 41 42 43 44 45 46 47 48 49 50

000
ASUS41 KCTP 261910
RWRCTP

REGIONAL WEATHER ROUNDUP
NATIONAL WEATHER SERVICE STATE COLLEGE PA
300 PM EDT THU MAY 26 2016

Note: "fair" indicates few or no clouds below 12,000 feet with no
significant weather and/or obstructions to visibility.

* = STATION THAT DOES NOT REPORT PRECIPITATION /E.G. RAIN...SNOW...ETC/
    THUNDER OR FOG.

PAZ002>004-007>009-013>016-020>023-029>032-262000-
WESTERN PENNSYLVANIA

CITY           SKY/WX    TMP DP  RH WIND       PRES   REMARKS
ERIE           MOSUNNY   74  62  66 NW10      30.00R
MEADVILLE      MOSUNNY   78  61  55 SW12      30.04S
FRANKLIN*      CLOUDY    79  63  57 SW12      30.08S
NEW CASTLE     FAIR      80  64  58 VRB7      30.05F
BEAVER COUNTY  CLOUDY    79  63  57 SW12      30.07S
BUTLER*        CLOUDY    81  63  54 SW13      30.10S
PITTSBURGH INT CLOUDY    80  59  48 W10       30.07S
PITTSBURGH     PTSUNNY   81  61  50 S17       30.07S
INDIANA*       PTSUNNY   79  64  61 VRB6G17   30.12S
LATROBE        PTSUNNY   79  64  61 W21       30.09S
WASHINGTON CO* CLOUDY    79  64  61 SW9       30.09F
$$

PAZ004>006-010>012-017>019-024>028-033>037-041-042-045-046-049>053-262000-
CENTRAL PENNSYLVANIA

CITY           SKY/WX    TMP DP  RH WIND       PRES   REMARKS
BRADFORD       PTSUNNY   77  57  50 S9G22     30.09S
DUBOIS         MOSUNNY   77  61  57 SW17G25   30.09R
CLEARFIELD     CLOUDY    79  59  50 SW12G23   30.08S
JOHNSTOWN      PTSUNNY   76  55  48 SW9       30.12F
ALTOONA        PTSUNNY   83  56  39 S10       30.09F
STATE COLLEGE  CLOUDY    77  57  50 SW9       30.08S
WILLIAMSPORT   MOSUNNY   85  56  37 S14G20    30.02F
SELINSGROVE    MOSUNNY   86  56  35 S6        30.05F
FT INDIANTOWN  PTSUNNY   86  59  39 S10G21    30.04F
CAPITAL CITY   MOSUNNY   89  59  36 MISG      30.03F
HARRISBURG     PTSUNNY   88  61  40 VRB7      30.03F
YORK           MOSUNNY   85  60  42 SW8       30.04F
$$

PAZ038>040-043-044-047-048-054-055-060>062-067>071-262000-
EASTERN PENNSYLVANIA

CITY           SKY/WX    TMP DP  RH WIND       PRES   REMARKS
SCRANTON       MOSUNNY   87  54  32 SW13G21   30.04F
MOUNT POCONO   MOSUNNY   77  50  38 SW10G21   30.12S
ALLENTOWN      PTSUNNY   88  52  29 S8G16     30.05F
QUAKERTOWN*    CLEAR     86  55  35 S6        30.07F
READING        MOSUNNY   88  56  33 S13       30.04F
LANCASTER      MOSUNNY   87  59  38 S7        30.05S
COATESVILLE    CLEAR     84  55  37 CALM      30.09S
POTTSTOWN      SUNNY     86  51  29 S9        30.07F
BLUE BELL      SUNNY     86  54  32 S8        30.06S
DOYLESTOWN     SUNNY     85  47  26 VRB6      30.06S
WILLOW GROVE   NOT AVBL
NORTH PHILA    MOSUNNY   89  53  29 MISG      30.07S
PHILADELPHIA   PTSUNNY   89  46  22 SW12      30.06F
$$



USA.gov is the U.S. government's official web portal to all federal, state and local government web resources and services.